GW4663 Weather Reports


Display with metric or nautical units.
time (UTC)temp
F
wind
direction
speed
MPH
gust
MPH
rain 1hr
in
rain 24hr
in
rain mn
in
humidity
%
barometer
mb
20260508094725 44 162 0.0 0.0 0.00 0.00 0.00 78 1003.6
20260508094222 44 160 0.0 0.0 0.00 0.00 0.00 78 1003.5
20260508093719 44 160 0.0 0.0 0.00 0.00 0.00 77 1003.6
20260508093217 44 143 0.0 0.0 0.00 0.00 0.00 78 1003.9
20260508092713 44 166 0.0 1.0 0.00 0.00 0.00 77 1004.0
20260508092212 45 166 0.0 1.0 0.00 0.00 0.00 77 1003.7
20260508091709 45 166 0.0 0.0 0.00 0.00 0.00 77 1004.0
20260508091206 45 160 0.0 0.0 0.00 0.00 0.00 77 1004.0
20260508090704 45 166 0.0 0.0 0.00 0.00 0.00 76 1004.0
20260508090201 45 101 1.0 1.0 0.00 0.00 0.00 77 1003.9
20260508085657 45 143 0.0 0.0 0.00 0.00 0.00 76 1003.9
20260508085155 45 126 0.0 0.0 0.00 0.00 0.00 76 1004.2
20260508084651 45 156 0.0 0.0 0.00 0.00 0.00 75 1003.9
20260508084148 45 157 0.0 0.0 0.00 0.00 0.00 75 1004.0
20260508083645 46 157 0.0 0.0 0.00 0.00 0.00 74 1004.3
20260508083143 46 166 0.0 1.0 0.00 0.00 0.00 74 1004.1
20260508082638 46 164 0.0 0.0 0.00 0.00 0.00 73 1004.5
20260508082135 46 156 0.0 0.0 0.00 0.00 0.00 73 1004.1
20260508081633 47 157 1.0 1.0 0.00 0.00 0.00 72 1004.3
20260508081129 47 136 0.0 0.0 0.00 0.00 0.00 72 1004.3
20260508080627 47 119 0.0 0.0 0.00 0.00 0.00 72 1004.5
20260508080125 47 126 0.0 0.0 0.00 0.00 0.00 72 1004.6
20260508075620 47 85 1.0 1.0 0.00 0.00 0.00 71 1004.7
20260508075118 47 103 0.0 1.0 0.00 0.00 0.00 71 1004.6
20260508074616 48 355 0.0 0.0 0.00 0.00 0.00 71 1004.5
20260508074112 48 149 0.0 0.0 0.00 0.00 0.00 70 1004.6
20260508073610 48 226 2.0 2.0 0.00 0.00 0.00 69 1004.6
20260508073107 49 170 0.0 0.0 0.00 0.00 0.00 69 1004.5
20260508072602 49 153 1.0 1.0 0.00 0.00 0.00 68 1004.2
20260508072100 49 149 1.0 1.0 0.00 0.00 0.00 68 1004.1
20260508071558 49 176 1.0 1.0 0.00 0.00 0.00 67 1004.3
20260508071056 50 153 1.0 2.0 0.00 0.00 0.00 67 1004.0
20260508070553 50 182 1.0 1.0 0.00 0.00 0.00 66 1004.2
20260508070051 50 148 0.0 0.0 0.00 0.00 0.00 65 1004.2
20260508065548 51 153 0.0 0.0 0.00 0.00 0.00 64 1004.5
20260508065046 51 126 0.0 0.0 0.00 0.00 0.00 64 1004.1
20260508064544 51 111 1.0 1.0 0.00 0.00 0.00 63 1003.9
20260508064041 51 143 0.0 0.0 0.00 0.00 0.00 62 1004.1
20260508063538 52 138 1.0 2.0 0.00 0.00 0.00 62 1004.0
20260508063037 52 116 0.0 1.0 0.00 0.00 0.00 61 1004.3
20260508062534 52 126 1.0 1.0 0.00 0.00 0.00 60 1004.7
20260508062030 53 52 2.0 2.0 0.00 0.00 0.00 60 1004.7
20260508061528 53 51 1.0 2.0 0.00 0.00 0.00 59 1005.2
20260508061025 53 2 4.0 4.0 0.00 0.00 0.00 59 1005.4
20260508060522 53 329 2.0 3.0 0.00 0.00 0.00 59 1004.7
20260508060019 53 149 0.0 0.0 0.00 0.01 0.01 59 1004.2
20260508055515 52 144 0.0 1.0 0.00 0.01 0.01 59 1003.7
20260508055012 53 137 0.0 0.0 0.00 0.01 0.01 59 1004.0
20260508054508 53 136 0.0 0.0 0.00 0.01 0.01 59 1003.7
20260508054005 53 102 2.0 2.0 0.00 0.01 0.01 58 1003.7
20260508053502 53 124 0.0 1.0 0.00 0.01 0.01 58 1003.9
20260508053000 53 138 0.0 0.0 0.00 0.01 0.01 58 1003.7
20260508052457 53 116 1.0 1.0 0.00 0.01 0.01 58 1003.7
20260508051954 53 136 1.0 1.0 0.00 0.01 0.01 57 1003.4
20260508051449 53 85 2.0 2.0 0.00 0.01 0.01 57 1003.7
20260508050945 53 121 1.0 1.0 0.00 0.01 0.01 57 1003.5
20260508050442 53 93 3.0 6.0 0.00 0.01 0.01 56 1003.6
20260508045939 54 110 1.0 2.0 0.00 0.01 0.01 57 1004.0
20260508045436 54 110 0.0 1.0 0.00 0.01 0.01 56 1004.2
20260508044933 54 34 2.0 6.0 0.00 0.01 0.01 56 1004.3
20260508044425 54 341 3.0 3.0 0.00 0.01 0.01 55 1004.3
20260508043925 54 309 4.0 4.0 0.00 0.01 0.01 55 1004.0
20260508043423 54 38 2.0 2.0 0.00 0.01 0.01 54 1003.6
20260508042919 54 131 0.0 0.0 0.00 0.01 0.01 54 1003.7
20260508042418 54 139 0.0 0.0 0.00 0.01 0.01 54 1003.3
20260508041914 55 131 2.0 2.0 0.00 0.01 0.01 53 1003.3
20260508041411 55 108 3.0 6.0 0.00 0.01 0.01 52 1003.0
20260508040907 55 104 2.0 4.0 0.00 0.01 0.01 51 1003.2
20260508040404 56 129 3.0 4.0 0.00 0.01 0.01 49 1003.5
20260508035902 57 35 2.0 3.0 0.00 0.01 0.01 47 1003.4
20260508035359 59 78 3.0 6.0 0.00 0.01 0.01 39 1003.4
20260508034856 59 112 1.0 1.0 0.00 0.01 0.01 38 1003.4
20260508034353 59 163 0.0 0.0 0.00 0.01 0.01 37 1003.0
20260508033850 59 175 0.0 0.0 0.00 0.01 0.01 38 1003.3
20260508033348 59 175 0.0 0.0 0.00 0.01 0.01 38 1003.4
20260508032845 59 191 0.0 0.0 0.00 0.01 0.01 38 1003.3
20260508032343 59 190 0.0 0.0 0.00 0.01 0.01 38 1003.2
20260508031839 59 228 1.0 1.0 0.00 0.01 0.01 38 1003.3
20260508031336 59 155 0.0 0.0 0.00 0.01 0.01 38 1003.2
20260508030832 59 133 1.0 1.0 0.00 0.01 0.01 38 1002.9
20260508030329 59 144 3.0 3.0 0.00 0.01 0.01 38 1002.8
20260508025826 59 144 0.0 1.0 0.00 0.01 0.01 38 1002.9
20260508025323 60 162 1.0 1.0 0.00 0.01 0.01 36 1002.9
20260508024820 60 184 1.0 1.0 0.00 0.01 0.01 36 1003.2
20260508024316 60 58 2.0 2.0 0.00 0.01 0.01 35 1003.0
20260508023813 60 130 0.0 0.0 0.00 0.01 0.01 36 1002.8
20260508023310 60 169 0.0 1.0 0.00 0.01 0.01 36 1002.7
20260508022807 61 46 2.0 4.0 0.00 0.01 0.01 35 1002.2
20260508022306 61 348 4.0 4.0 0.00 0.01 0.01 35 1002.2
20260508021800 62 116 3.0 3.0 0.00 0.01 0.01 33 1002.3
20260508021255 62 30 4.0 6.0 0.00 0.01 0.01 32 1002.6
20260508020752 62 62 4.0 4.0 0.00 0.01 0.01 32 1002.9
20260508020250 62 2 4.0 4.0 0.00 0.01 0.01 31 1002.8
20260508015746 63 310 4.0 6.0 0.00 0.01 0.01 31 1002.3
20260508015244 63 182 0.0 1.0 0.00 0.01 0.01 30 1002.2
20260508014741 63 191 14.0 16.0 0.00 0.01 0.01 29 1002.3
20260508014237 64 188 3.0 4.0 0.00 0.01 0.01 30 1002.1
20260508013733 64 254 3.0 4.0 0.00 0.01 0.01 28 1001.7
20260508013230 64 192 1.0 1.0 0.00 0.01 0.01 26 1001.5
20260508012728 65 172 0.0 0.0 0.00 0.01 0.01 26 1001.3
20260508012224 65 183 0.0 0.0 0.00 0.01 0.01 25 1001.1
20260508011722 65 177 1.0 1.0 0.00 0.01 0.01 25 1001.5
20260508011220 65 171 0.0 0.0 0.00 0.01 0.01 25 1001.3
20260508010716 65 177 0.0 1.0 0.00 0.01 0.01 25 1001.1
20260508010214 65 177 0.0 0.0 0.00 0.01 0.01 24 1001.1
20260508005711 66 190 0.0 1.0 0.00 0.01 0.01 24 1001.0
20260508005208 66 183 1.0 1.0 0.00 0.01 0.01 23 1001.1
20260508004703 66 190 1.0 1.0 0.00 0.01 0.01 24 1001.3
20260508004200 66 187 1.0 1.0 0.00 0.01 0.01 25 1001.1
20260508003657 66 240 2.0 2.0 0.00 0.01 0.01 23 1001.0
20260508003154 66 192 1.0 1.0 0.00 0.01 0.01 24 1001.1
20260508002650 66 188 1.0 2.0 0.00 0.01 0.01 24 1001.0
20260508002148 66 204 0.0 1.0 0.00 0.01 0.01 25 1000.9
20260508001643 66 250 2.0 2.0 0.00 0.01 0.01 24 1000.7
20260508001139 66 182 2.0 3.0 0.00 0.01 0.01 23 1000.8
20260508000635 67 180 1.0 1.0 0.00 0.01 0.01 23 1000.9
20260508000133 68 206 3.0 4.0 0.00 0.01 0.01 22 1000.9
20260507235630 69 223 2.0 3.0 0.00 0.01 0.01 22 1001.0
20260507235127 69 204 2.0 3.0 0.00 0.01 0.01 21 1000.9
20260507234623 70 234 4.0 4.0 0.00 0.01 0.01 22 1000.9
20260507234120 70 189 3.0 4.0 0.00 0.01 0.01 21 1001.1
20260507233617 70 225 0.0 1.0 0.00 0.01 0.01 21 1001.0
20260507233116 69 171 2.0 3.0 0.00 0.01 0.01 22 1001.3
20260507232612 70 37 1.0 1.0 0.00 0.01 0.01 21 1001.0
20260507232109 69 228 2.0 2.0 0.00 0.01 0.01 22 1001.0
20260507231605 70 217 2.0 3.0 0.00 0.01 0.01 21 1001.0
20260507231102 69 204 2.0 2.0 0.00 0.01 0.01 21 1001.1
20260507230559 69 201 2.0 4.0 0.00 0.01 0.01 22 1001.4
20260507230055 70 248 9.0 10.0 0.00 0.01 0.01 21 1001.3
20260507225550 69 282 5.0 7.0 0.00 0.01 0.01 21 1001.1
20260507225047 69 265 5.0 7.0 0.00 0.01 0.01 21 1001.1
20260507224543 70 266 5.0 9.0 0.00 0.01 0.01 21 1001.1
20260507224040 70 264 6.0 7.0 0.00 0.01 0.01 21 1001.3
20260507223536 69 346 2.0 3.0 0.00 0.01 0.01 20 1001.1
20260507223033 68 255 8.0 11.0 0.00 0.01 0.01 22 1001.5
20260507222530 67 257 2.0 3.0 0.00 0.01 0.01 23 1001.6
20260507222026 66 232 3.0 3.0 0.00 0.01 0.01 24 1001.5
20260507221523 66 244 3.0 4.0 0.00 0.01 0.01 23 1001.9
20260507221020 66 247 8.0 10.0 0.00 0.01 0.01 23 1001.6
20260507220517 67 242 8.0 11.0 0.00 0.01 0.01 23 1001.6
20260507220015 67 222 3.0 3.0 0.00 0.01 0.01 23 1001.7
20260507215510 66 292 6.0 8.0 0.00 0.01 0.01 24 1001.9
20260507215009 67 332 4.0 4.0 0.00 0.01 0.01 23 1002.0
20260507214505 67 330 3.0 7.0 0.00 0.01 0.01 23 1002.0
20260507214000 68 301 4.0 4.0 0.00 0.01 0.01 23 1002.1
20260507213458 68 271 7.0 9.0 0.00 0.01 0.01 22 1002.3
20260507212954 66 254 3.0 4.0 0.00 0.01 0.01 24 1002.1
20260507212450 66 253 9.0 11.0 0.00 0.01 0.01 24 1002.4
20260507211948 66 274 8.0 9.0 0.00 0.01 0.01 23 1002.2
20260507211444 66 333 7.0 9.0 0.00 0.01 0.01 23 1002.3
20260507210941 66 218 2.0 4.0 0.00 0.01 0.01 24 1002.6
20260507210438 69 321 6.0 8.0 0.00 0.01 0.01 23 1002.3
20260507205934 71 243 6.0 9.0 0.00 0.01 0.01 21 1002.6
20260507205432 70 296 2.0 3.0 0.00 0.01 0.01 23 1002.4
20260507204928 69 231 5.0 6.0 0.00 0.01 0.01 21 1002.7
20260507204424 70 286 10.0 14.0 0.00 0.01 0.01 22 1002.3
20260507203922 69 239 3.0 4.0 0.00 0.01 0.01 22 1002.4
20260507203420 69 75 3.0 4.0 0.00 0.01 0.01 23 1002.6
20260507202916 68 352 2.0 6.0 0.00 0.01 0.01 24 1002.7
20260507202413 69 19 5.0 10.0 0.00 0.01 0.01 24 1002.8
20260507201908 68 192 2.0 4.0 0.00 0.01 0.01 23 1002.9
20260507201403 69 266 7.0 13.0 0.00 0.01 0.01 23 1002.9
20260507200900 68 307 4.0 7.0 0.00 0.01 0.01 25 1003.3
20260507200356 67 156 6.0 8.0 0.00 0.01 0.01 26 1003.3
20260507195852 68 248 7.0 8.0 0.00 0.01 0.01 24 1003.4
20260507195350 68 198 4.0 6.0 0.00 0.01 0.01 25 1003.3
20260507194847 68 246 6.0 7.0 0.00 0.01 0.01 25 1003.4
20260507194343 67 221 10.0 11.0 0.00 0.01 0.01 25 1003.6
20260507193840 67 278 5.0 6.0 0.00 0.01 0.01 25 1003.6
20260507193337 66 215 5.0 7.0 0.00 0.01 0.01 27 1003.6
20260507192833 65 199 6.0 9.0 0.00 0.01 0.01 28 1003.7
20260507192324 65 230 2.0 3.0 0.00 0.01 0.01 30 1003.6
20260507191820 66 244 4.0 4.0 0.00 0.01 0.01 28 1003.6
20260507191317 65 238 8.0 9.0 0.00 0.01 0.01 29 1003.9
20260507190814 64 202 4.0 4.0 0.00 0.01 0.01 29 1003.7
20260507190312 65 232 4.0 6.0 0.00 0.01 0.01 30 1003.7
20260507185810 64 198 6.0 8.0 0.00 0.01 0.01 28 1003.6
20260507185307 64 186 5.0 6.0 0.00 0.01 0.01 29 1003.7
20260507184804 63 147 6.0 7.0 0.00 0.01 0.01 29 1004.0
20260507184302 64 233 2.0 3.0 0.00 0.01 0.01 30 1003.9
20260507183758 65 158 3.0 3.0 0.00 0.01 0.01 28 1004.0
20260507183255 65 239 5.0 6.0 0.00 0.01 0.01 28 1004.0
20260507182753 65 208 3.0 3.0 0.00 0.01 0.01 31 1004.0
20260507182248 64 163 5.0 6.0 0.00 0.01 0.01 29 1004.1
20260507181745 62 190 4.0 6.0 0.00 0.01 0.01 32 1004.3
20260507181241 62 241 4.0 6.0 0.00 0.01 0.01 31 1004.3
20260507180738 63 203 6.0 9.0 0.00 0.01 0.01 30 1004.3
20260507180235 62 147 2.0 3.0 0.00 0.01 0.01 35 1004.1
20260507175730 62 193 6.0 8.0 0.00 0.01 0.01 35 1004.2
20260507175227 62 191 4.0 6.0 0.00 0.01 0.01 32 1004.3
20260507174725 62 161 2.0 3.0 0.00 0.01 0.01 33 1004.3
20260507174223 62 193 6.0 9.0 0.00 0.01 0.01 33 1004.3
20260507173720 62 241 5.0 7.0 0.00 0.01 0.01 32 1004.6
20260507173217 62 228 3.0 4.0 0.00 0.01 0.01 34 1004.2
20260507172714 62 178 2.0 2.0 0.00 0.01 0.01 33 1004.5
20260507172210 61 130 3.0 3.0 0.00 0.01 0.01 35 1004.3
20260507171705 60 168 2.0 3.0 0.00 0.01 0.01 35 1004.5
20260507171203 59 197 4.0 6.0 0.00 0.01 0.01 35 1004.9
20260507170659 59 197 5.0 7.0 0.00 0.01 0.01 34 1004.6
20260507170156 59 167 5.0 9.0 0.00 0.01 0.01 35 1004.7
20260507165651 59 205 7.0 10.0 0.00 0.01 0.01 34 1004.8
20260507165148 60 177 5.0 7.0 0.00 0.01 0.01 34 1004.8
20260507164644 59 192 5.0 7.0 0.00 0.01 0.01 34 1005.0
20260507164141 59 172 4.0 4.0 0.00 0.01 0.01 36 1004.8
20260507163638 58 156 5.0 7.0 0.00 0.01 0.01 36 1005.2
20260507163137 59 195 3.0 4.0 0.00 0.01 0.01 37 1004.9
20260507162632 58 218 3.0 3.0 0.00 0.01 0.01 37 1005.0
20260507162128 58 219 3.0 4.0 0.00 0.01 0.01 36 1005.4
20260507161624 57 162 4.0 4.0 0.00 0.01 0.01 37 1005.0
20260507161121 56 154 5.0 6.0 0.00 0.01 0.01 37 1005.2
20260507160617 56 156 4.0 6.0 0.00 0.01 0.01 37 1005.0
20260507160114 56 160 5.0 7.0 0.00 0.01 0.01 37 1005.2
20260507155609 56 199 4.0 6.0 0.00 0.01 0.01 36 1005.2
20260507155106 56 164 3.0 4.0 0.00 0.01 0.01 37 1005.2
20260507154603 55 146 4.0 6.0 0.00 0.01 0.01 37 1005.4
20260507154100 55 195 4.0 4.0 0.00 0.01 0.01 36 1005.5
20260507153557 55 153 6.0 7.0 0.00 0.01 0.01 37 1005.4
20260507153053 55 136 5.0 8.0 0.00 0.01 0.01 37 1005.2
20260507152549 54 172 4.0 4.0 0.00 0.01 0.01 36 1005.3
20260507152046 54 172 5.0 7.0 0.00 0.01 0.01 36 1005.3
20260507151542 54 122 5.0 6.0 0.00 0.01 0.01 37 1005.6
20260507151039 53 155 6.0 8.0 0.00 0.01 0.01 37 1005.4
20260507150536 53 160 2.0 3.0 0.00 0.01 0.01 38 1005.4
20260507150033 52 138 2.0 3.0 0.00 0.01 0.01 38 1005.5
20260507145527 52 157 4.0 6.0 0.00 0.01 0.01 38 1005.4
20260507145026 51 187 4.0 4.0 0.00 0.01 0.01 39 1005.4
20260507144522 51 149 6.0 7.0 0.00 0.01 0.01 38 1005.3
20260507144020 51 141 3.0 4.0 0.00 0.01 0.01 39 1005.5
20260507143517 50 176 4.0 4.0 0.00 0.01 0.01 39 1005.6
20260507143014 50 167 2.0 3.0 0.00 0.01 0.01 40 1005.5
20260507142509 49 138 5.0 6.0 0.00 0.01 0.01 40 1005.3
20260507142007 49 170 4.0 6.0 0.00 0.01 0.01 41 1005.0
20260507141502 48 156 2.0 3.0 0.05 0.01 0.01 41 1005.3
20260507140959 48 213 4.0 6.0 0.05 0.01 0.01 41 1005.5
20260507140456 48 129 2.0 3.0 0.00 0.00 0.00 42 1005.3
20260507135953 47 203 4.0 6.0 0.00 0.00 0.00 42 1005.4
20260507135450 47 231 6.0 8.0 0.00 0.00 0.00 43 1005.6
20260507134947 46 155 4.0 4.0 0.00 0.00 0.00 43 1005.3
20260507134444 46 194 4.0 6.0 0.00 0.00 0.00 43 1005.4
20260507133940 46 126 4.0 6.0 0.00 0.00 0.00 44 1005.5
20260507133436 45 183 3.0 4.0 0.00 0.00 0.00 44 1005.2
20260507132935 45 185 6.0 8.0 0.00 0.00 0.00 44 1005.3
20260507132430 44 187 3.0 4.0 0.00 0.00 0.00 46 1005.4
20260507131927 43 172 6.0 7.0 0.00 0.00 0.00 46 1005.6
20260507131424 43 201 4.0 4.0 0.00 0.00 0.00 46 1005.3
20260507130921 42 140 2.0 3.0 0.00 0.00 0.00 47 1005.4
20260507130418 42 183 2.0 2.0 0.00 0.00 0.00 47 1005.3
20260507125917 42 182 1.0 1.0 0.00 0.00 0.00 48 1005.3
20260507125414 42 193 6.0 7.0 0.00 0.00 0.00 47 1005.0
20260507124912 41 174 3.0 4.0 0.00 0.00 0.00 48 1005.2
20260507124407 41 171 2.0 3.0 0.00 0.00 0.00 47 1005.2
20260507123906 41 173 5.0 7.0 0.00 0.00 0.00 47 1004.8
20260507123403 41 154 1.0 2.0 0.00 0.00 0.00 48 1004.9
20260507122859 41 184 4.0 6.0 0.00 0.00 0.00 47 1004.9
20260507122355 40 176 4.0 4.0 0.00 0.00 0.00 48 1004.9
20260507121851 40 148 4.0 6.0 0.00 0.00 0.00 49 1004.9
20260507121346 40 159 1.0 2.0 0.00 0.00 0.00 49 1004.8
20260507120843 39 165 1.0 1.0 0.00 0.00 0.00 49 1004.9
20260507120340 39 169 3.0 4.0 0.00 0.00 0.00 50 1004.8
20260507115836 39 155 4.0 6.0 0.00 0.00 0.00 49 1004.8
20260507115332 39 159 4.0 4.0 0.00 0.00 0.00 49 1004.9
20260507114828 39 148 2.0 2.0 0.00 0.00 0.00 49 1004.7
20260507114325 39 173 4.0 6.0 0.00 0.00 0.00 50 1004.7
20260507113823 39 127 2.0 3.0 0.00 0.00 0.00 49 1004.7
20260507113319 39 178 3.0 3.0 0.00 0.00 0.00 49 1004.8
20260507112817 39 174 3.0 3.0 0.00 0.00 0.00 49 1004.7
20260507112314 39 186 2.0 2.0 0.00 0.00 0.00 50 1004.3
20260507111812 39 172 5.0 7.0 0.00 0.00 0.00 49 1004.8
20260507111308 39 184 3.0 3.0 0.00 0.00 0.00 50 1004.6
20260507110804 39 155 2.0 3.0 0.00 0.00 0.00 51 1004.7
20260507110300 39 159 3.0 4.0 0.00 0.00 0.00 52 1004.7
20260507105758 38 156 2.0 3.0 0.00 0.00 0.00 53 1004.6
20260507105254 38 182 3.0 3.0 0.00 0.00 0.00 53 1004.8
20260507104751 38 149 2.0 2.0 0.00 0.00 0.00 53 1004.7
20260507104248 38 141 2.0 2.0 0.00 0.00 0.00 53 1004.7
20260507103743 38 163 3.0 3.0 0.00 0.00 0.00 53 1004.7
20260507103240 38 180 3.0 3.0 0.00 0.00 0.00 53 1004.9
20260507102736 38 178 3.0 3.0 0.00 0.00 0.00 53 1004.9
20260507102233 38 160 2.0 2.0 0.00 0.00 0.00 54 1005.0
20260507101729 38 147 3.0 3.0 0.00 0.00 0.00 53 1004.9
20260507101225 38 165 3.0 3.0 0.00 0.00 0.00 53 1004.9
20260507100722 39 149 2.0 2.0 0.00 0.00 0.00 52 1005.2
20260507100220 38 191 3.0 4.0 0.00 0.00 0.00 52 1005.0
20260507095718 38 152 2.0 2.0 0.00 0.00 0.00 54 1004.9
20260507095214 38 146 3.0 3.0 0.00 0.00 0.00 54 1005.0